Regional Weather Roundup
Issued by NWS Jackson, KY

Home | Current Version | Previous Version | Graphics & Text | Print | Product List | Glossary On
Versions: 1 2 3 4 5 6 7 8 9 10 11 12 13 14 15 16 17 18 19 20 21 22 23 24 25 26 27 28 29 30 31 32 33 34 35 36 37 38 39 40 41 42 43 44 45 46 47
000
ASUS43 KJKL 281510
RWRJKL

EAST KENTUCKY HOURLY WEATHER ROUNDUP
NATIONAL WEATHER SERVICE JACKSON KY
1100 AM EDT TUE JUL 28 2015

NOTE: "FAIR" INDICATES FEW OR NO CLOUDS BELOW 12,000 FEET WITH
NO SIGNIFICANT WEATHER AND/OR OBSTRUCTIONS TO VISIBILITY.

* THESE REPORTS ARE NOT UNDER NWS QUALITY CONTROL AND MAY NOT
  REPORT WEATHER SUCH AS PRECIPITATION AND FOG.

KYZ079-080-083-085-087-088-110-112-115-119-120-281600
...EASTERN KENTUCKY...

CITY           SKY/WX    TMP DP  RH WIND       PRES   REMARKS
JACKSON        MOSUNNY   83  73  72 CALM      30.04F
LONDON         SUNNY     83  71  67 VRB3      30.04F
SOMERSET*      MOSUNNY   82  72  69 CALM      30.04S
MONTICELLO*    MOSUNNY   86  74  67 SW5       30.05F HX  94
WILLIAMSBURG*  SUNNY     82  75  78 CALM      30.04F
MIDDLESBORO*   SUNNY     80  74  82 CALM      30.05F
HAZARD APT*    SUNNY     82  75  78 CALM      30.04S
BLACK MTN*       N/A     75  68  78 CALM        N/A
PIKEVILLE APT* CLOUDY    79  73  83 CALM      30.06S
BIG SANDY*     MOSUNNY   77  74  92 CALM      30.04S
MOREHEAD APT*  PTSUNNY   82  73  74 CALM      30.04F
$$

KYZ035-036-041-042-044-050-067-078-099-281600
...CENTRAL KENTUCKY...

CITY           SKY/WX    TMP DP  RH WIND       PRES   REMARKS
MT STERLING*   MOSUNNY   82  73  74 CALM      30.03F
FLEMING/MASON* SUNNY     81  73  78 CALM      30.03F
DANVILLE*      MOSUNNY   86  75  70 S5        30.03S HX  95
RICHMOND*      MOSUNNY   84  73  70 CALM      30.02S HX  91
LEXINGTON      SUNNY     83  75  77 S5        30.02S HX  90
FRANKFORT      SUNNY     84  75  74 S5        30.00S HX  92
$$

KYZ091>093-OHZ055-061-077-WVZ005-015-034-035-042-281600
...SOUTHERN OHIO/WEST VIRGINIA...

CITY           SKY/WX    TMP DP  RH WIND       PRES   REMARKS
COVINGTON      MOSUNNY   84  72  67 CALM      30.01S
COLUMBUS       MOSUNNY   85  66  53 E3        30.01S
DAYTON         MOSUNNY   82  71  69 E7        30.03F
WILMINGTON     SUNNY     80  71  74 SE5       30.02F
HUNTINGTON     MOSUNNY   81  73  76 CALM      30.01S
CHARLESTON     MOSUNNY   81  72  74 CALM      30.02F
PINEVILLE*     MOSUNNY   81  75  82 MISG      30.12S
BECKLEY        MOSUNNY   78  69  73 W3        30.10F
BLUEFIELD      PTSUNNY   81  69  67 VRB3      30.14S
$$

VAZ002-007-008-TNZ017-027-036-066-071-281600
...SOUTHWEST VIRGINIA/EAST TENNESSEE...

CITY           SKY/WX    TMP DP  RH WIND       PRES   REMARKS
ABINGDON*      MOSUNNY   81  71  70 CALM      30.09F
BRISTOL        MOSUNNY   81  71  71 S5        30.06F
KNOXVILLE      MOSUNNY   85  74  69 VRB3      30.03F HX  92
OAK RIDGE      SUNNY     85  73  67 CALM      30.05S HX  91
CROSSVILLE     MOSUNNY   84  72  67 CALM      30.09F
NASHVILLE      MOSUNNY   89  77  67 VRB3      30.01F HX 101
$$

...KEY TO REMARKS...
VSB - VISIBILITY IN MILES
WCI - WIND CHILL INDEX
HX  - HEAT INDEX

$$



USA.gov is the U.S. government's official web portal to all federal, state and local government web resources and services.